sat.trackr.live / text

‹ back to catalog

STARLINK-31452

NORAD 59527 · 2024-073S

PAYLOAD ACTIVE UNKNOWN

§ Identity

Operator
Country
US
Launch date
2024-04-17
Launch site
AFETR
Launch vehicle
Mass (kg)
RCS (m²)

Purposes: comms

External: N2YO · Heavens-Above · Gunter

§ Orbital elements

Epoch: 2026-05-25T00:06:02.270016Z

Period
94.27 min
Inclination
43.0035°
Eccentricity
0.0001842
Mean motion
15.27568616 rev/d
Perigee alt
481.8 km
Apogee alt
484.3 km
Semi-major
6,861.2 km
B*
1.3486e-4
RAAN
247.3204°
Arg perigee
280.7001°
Mean anomaly
79.3644°
Rev number
11,784

§ Raw data

STARLINK-314521 59527U 24073S   26145.00419294  .00003449  00000+0  13486-3 0  99952 59527  43.0035 247.3204 0001842 280.7001  79.3644 15.27568616117841

JSON: /api/v1/satellites/59527 · /tle

For live sub-satellite position, see the globe view (requires WebGL).

§ Visibility from observer

Set your observer location to see the next 7 days of passes ≥ 10°. The values pass through the URL so the page stays shareable.

No JS? Fill the form by hand. The geolocation button needs JavaScript.